When you browse on this site, cookies collect data to enhance your experience and personalize the content and advertising you see.
Visit our Privacy Policy to learn more. By continuing to use the site, you agree to this use of cookies and data.
  • In Netherlands
  • List of Countries
  • For 7 days
  • Water Temperature
  • Weather Map
  • Weather Widgets
  • user-avatar
    Login

    Hourly Weather Montana

    Today, 22 August, Thursday

    Time Temperature Precipitation Wind Pressure Humidity
    00:00 +23°C° 0 mm 1 mps 737 mmHg 41%
    01:00 +23°C° 0 mm 1 mps 738 mmHg 42%
    02:00 +23°C° 0 mm 1 mps 738 mmHg 47%
    03:00 +23°C° 0 mm 1 mps 738 mmHg 49%
    04:00 +22°C° 0 mm 1 mps 738 mmHg 51%
    05:00 +22°C° 0 mm 1 mps 737 mmHg 53%
    06:00 +24°C° 0 mm 1 mps 738 mmHg 49%
    07:00 +24°C° 0 mm 0 mps 738 mmHg 45%
    08:00 +26°C° 0 mm 0 mps 739 mmHg 41%
    09:00 +30°C° 0 mm 1 mps 739 mmHg 37%
    10:00 +31°C° 0 mm 2 mps 739 mmHg 33%
    11:00 +34°C° 0 mm 3 mps 739 mmHg 29%
    12:00 +35°C° 0 mm 3 mps 738 mmHg 28%
    13:00 +35°C° 0 mm 3 mps 738 mmHg 26%
    14:00 +36°C° 0 mm 3 mps 738 mmHg 24%
    15:00 +36°C° 0 mm 3 mps 738 mmHg 24%
    16:00 +36°C° 0 mm 3 mps 737 mmHg 24%
    17:00 +36°C° 0 mm 3 mps 737 mmHg 24%
    18:00 +34°C° 0 mm 3 mps 737 mmHg 28%
    19:00 +30°C° 0 mm 2 mps 737 mmHg 33%
    20:00 +28°C° 0 mm 2 mps 737 mmHg 38%
    21:00 +27°C° 0 mm 2 mps 738 mmHg 39%
    22:00 +26°C° 0 mm 1 mps 738 mmHg 40%
    23:00 +26°C° 0 mm 1 mps 738 mmHg 41%

    Tomorrow, 23 August, Friday

    Time Temperature Precipitation Wind Pressure Humidity
    00:00 +25°C° 0 mm 1 mps 738 mmHg 44%
    01:00 +24°C° 0 mm 1 mps 738 mmHg 47%
    02:00 +24°C° 0 mm 1 mps 739 mmHg 50%
    03:00 +23°C° 0 mm 1 mps 738 mmHg 52%
    04:00 +22°C° 0 mm 1 mps 738 mmHg 55%
    05:00 +22°C° 0 mm 1 mps 738 mmHg 58%
    06:00 +23°C° 0 mm 1 mps 739 mmHg 54%
    07:00 +25°C° 0 mm 1 mps 739 mmHg 51%
    08:00 +27°C° 0 mm 1 mps 739 mmHg 48%
    09:00 +28°C° 0 mm 2 mps 739 mmHg 43%
    10:00 +30°C° 0 mm 2 mps 739 mmHg 39%
    11:00 +33°C° 0 mm 3 mps 739 mmHg 34%
    12:00 +34°C° 0 mm 3 mps 739 mmHg 33%
    13:00 +35°C° 0 mm 4 mps 738 mmHg 31%
    14:00 +36°C° 0 mm 5 mps 738 mmHg 29%
    15:00 +35°C° 0 mm 4 mps 738 mmHg 29%
    16:00 +35°C° 0 mm 4 mps 737 mmHg 30%
    17:00 +35°C° 0 mm 4 mps 737 mmHg 30%
    18:00 +31°C° 0 mm 3 mps 737 mmHg 34%
    19:00 +29°C° 0 mm 3 mps 737 mmHg 38%
    20:00 +27°C° 0 mm 2 mps 737 mmHg 42%
    21:00 +26°C° 0 mm 2 mps 738 mmHg 44%
    22:00 +26°C° 0 mm 2 mps 738 mmHg 45%
    23:00 +25°C° 0 mm 2 mps 738 mmHg 47%

    Day after tomorrow, 24 August, Saturday

    Time Temperature Precipitation Wind Pressure Humidity
    00:00 +25°C° 0 mm 1 mps 738 mmHg 50%
    01:00 +24°C° 0 mm 1 mps 738 mmHg 52%
    02:00 +24°C° 0 mm 1 mps 738 mmHg 55%
    03:00 +23°C° 0 mm 1 mps 738 mmHg 58%
    04:00 +23°C° 0 mm 1 mps 738 mmHg 62%
    05:00 +22°C° 0 mm 1 mps 738 mmHg 66%
    06:00 +24°C° 0 mm 1 mps 738 mmHg 61%
    07:00 +25°C° 0 mm 1 mps 738 mmHg 57%
    08:00 +27°C° 0 mm 1 mps 738 mmHg 53%
    09:00 +29°C° 0 mm 2 mps 738 mmHg 47%
    10:00 +31°C° 0 mm 2 mps 738 mmHg 42%
    11:00 +34°C° 0 mm 3 mps 738 mmHg 36%
    12:00 +34°C° 0 mm 4 mps 738 mmHg 35%
    13:00 +35°C° 0 mm 4 mps 737 mmHg 33%
    14:00 +35°C° 0 mm 4 mps 737 mmHg 31%
    15:00 +35°C° 0 mm 5 mps 737 mmHg 33%
    16:00 +34°C° 0 mm 5 mps 736 mmHg 35%
    17:00 +34°C° 0 mm 5 mps 736 mmHg 36%
    18:00 +32°C° 0 mm 4 mps 736 mmHg 41%
    19:00 +29°C° 0 mm 3 mps 736 mmHg 46%
    20:00 +27°C° 0 mm 2 mps 736 mmHg 51%
    21:00 +26°C° 0 mm 2 mps 736 mmHg 53%
    22:00 +25°C° 0 mm 1 mps 737 mmHg 55%
    23:00 +25°C° 0 mm 1 mps 737 mmHg 57%

    25 August, Sunday

    Time Temperature Precipitation Wind Pressure Humidity
    00:00 +24°C° 0.1 mm 1 mps 737 mmHg 59%
    01:00 +24°C° 0.1 mm 1 mps 737 mmHg 60%
    02:00 +24°C° 0.1 mm 1 mps 737 mmHg 62%
    03:00 +23°C° 0 mm 1 mps 736 mmHg 64%
    04:00 +23°C° 0 mm 1 mps 736 mmHg 66%
    05:00 +23°C° 0 mm 1 mps 736 mmHg 69%
    06:00 +24°C° 0 mm 1 mps 737 mmHg 63%
    07:00 +26°C° 0 mm 1 mps 737 mmHg 57%
    08:00 +28°C° 0 mm 2 mps 737 mmHg 51%
    09:00 +29°C° 0 mm 3 mps 737 mmHg 44%
    10:00 +32°C° 0 mm 4 mps 737 mmHg 38%
    11:00 +34°C° 0 mm 5 mps 737 mmHg 31%
    12:00 +34°C° 0 mm 5 mps 737 mmHg 29%
    13:00 +35°C° 0 mm 5 mps 736 mmHg 27%
    14:00 +36°C° 0 mm 5 mps 736 mmHg 25%
    15:00 +36°C° 0 mm 5 mps 735 mmHg 25%
    16:00 +35°C° 0 mm 5 mps 735 mmHg 26%
    17:00 +35°C° 0 mm 5 mps 735 mmHg 26%
    18:00 +33°C° 0 mm 4 mps 735 mmHg 30%
    19:00 +29°C° 0 mm 3 mps 735 mmHg 35%
    20:00 +27°C° 0 mm 2 mps 735 mmHg 39%
    21:00 +26°C° 0 mm 1 mps 736 mmHg 41%
    22:00 +26°C° 0 mm 1 mps 736 mmHg 43%
    23:00 +25°C° 0 mm 1 mps 736 mmHg 45%

    26 August, Monday

    Time Temperature Precipitation Wind Pressure Humidity
    00:00 +24°C° 0 mm 1 mps 736 mmHg 47%
    01:00 +24°C° 0 mm 1 mps 736 mmHg 49%
    02:00 +24°C° 0 mm 1 mps 736 mmHg 51%
    03:00 +23°C° 0 mm 1 mps 736 mmHg 54%
    04:00 +23°C° 0 mm 1 mps 736 mmHg 57%
    05:00 +22°C° 0 mm 1 mps 736 mmHg 60%
    06:00 +24°C° 0 mm 1 mps 736 mmHg 56%
    07:00 +25°C° 0 mm 1 mps 737 mmHg 52%
    08:00 +27°C° 0 mm 1 mps 737 mmHg 48%
    09:00 +29°C° 0 mm 2 mps 737 mmHg 43%
    10:00 +31°C° 0 mm 3 mps 737 mmHg 38%
    11:00 +33°C° 0 mm 4 mps 737 mmHg 33%
    12:00 +34°C° 0 mm 4 mps 737 mmHg 31%
    13:00 +35°C° 0 mm 4 mps 737 mmHg 28%
    14:00 +36°C° 0 mm 3 mps 736 mmHg 25%
    15:00 +36°C° 0 mm 4 mps 736 mmHg 25%
    16:00 +36°C° 0 mm 4 mps 736 mmHg 25%
    17:00 +35°C° 0 mm 4 mps 736 mmHg 25%
    18:00 +33°C° 0 mm 3 mps 736 mmHg 31%
    19:00 +30°C° 0 mm 3 mps 736 mmHg 37%
    20:00 +27°C° 0 mm 2 mps 736 mmHg 44%
    21:00 +26°C° 0 mm 2 mps 736 mmHg 47%
    22:00 +25°C° 0 mm 1 mps 737 mmHg 49%
    23:00 +25°C° 0 mm 1 mps 737 mmHg 52%

    27 August, Tuesday

    Time Temperature Precipitation Wind Pressure Humidity
    00:00 +24°C° 0 mm 1 mps 737 mmHg 53%
    01:00 +24°C° 0 mm 1 mps 737 mmHg 54%
    02:00 +24°C° 0 mm 1 mps 737 mmHg 55%
    03:00 +23°C° 0 mm 1 mps 736 mmHg 57%
    04:00 +23°C° 0 mm 1 mps 736 mmHg 58%
    05:00 +22°C° 0 mm 1 mps 736 mmHg 60%
    06:00 +23°C° 0 mm 1 mps 737 mmHg 57%
    07:00 +25°C° 0 mm 1 mps 737 mmHg 54%
    08:00 +26°C° 0 mm 1 mps 737 mmHg 51%
    09:00 +27°C° 0 mm 1 mps 737 mmHg 47%
    10:00 +29°C° 0 mm 2 mps 737 mmHg 43%
    11:00 +30°C° 0 mm 2 mps 737 mmHg 38%
    12:00 +32°C° 0 mm 2 mps 737 mmHg 35%
    13:00 +34°C° 0 mm 3 mps 737 mmHg 32%
    14:00 +35°C° 0 mm 3 mps 736 mmHg 28%
    15:00 +34°C° 0 mm 3 mps 736 mmHg 29%
    16:00 +34°C° 0 mm 3 mps 736 mmHg 30%
    17:00 +33°C° 0 mm 3 mps 735 mmHg 31%
    18:00 +30°C° 0 mm 2 mps 735 mmHg 34%
    19:00 +29°C° 0 mm 2 mps 736 mmHg 37%
    20:00 +27°C° 0 mm 1 mps 736 mmHg 39%
    21:00 +26°C° 0 mm 1 mps 736 mmHg 41%
    22:00 +25°C° 0 mm 1 mps 736 mmHg 42%
    23:00 +25°C° 0 mm 1 mps 736 mmHg 43%
    Show more